Le nostre stazioni meteo in Italia

Pubblicità
Il mio iltempo24.it
Dalwhinnie, Gran Bretagna (99005): Temperatura & dewpoint: 17.05.2017 15:00:00 - 23.05.2017 15:00:00 (BST)Dalwhinnie, Gran Bretagna (99005): Temperatura 5cm: 17.05.2017 15:00:00 - 23.05.2017 15:00:00 (BST)Dalwhinnie, Gran Bretagna (99005): velocità del vento: 17.05.2017 15:00:00 - 23.05.2017 15:00:00 (BST)Dalwhinnie, Gran Bretagna (99005): direzione del vento: 17.05.2017 15:00:00 - 23.05.2017 15:00:00 (BST)Dalwhinnie, Gran Bretagna (99005): visibility: 17.05.2017 15:00:00 - 23.05.2017 15:00:00 (BST)Dalwhinnie, Gran Bretagna (99005): precipitazioni: 17.05.2017 15:00:00 - 23.05.2017 15:00:00 (BST)
Data & Tempo tt [°C] td [°C] tt 5cm [°C] ff [km/h] ff [kn] dd vv [km] rr [mm]
23.05.2017 15:00:00 12,9 5,8 - - - - - 0,0
23.05.2017 14:00:00 13,1 6,1 - - - - - 0,0
23.05.2017 13:00:00 13,2 5,7 - - - - - 0,0
23.05.2017 12:00:00 12,5 6,1 - - - - - 0,0
23.05.2017 11:00:00 10,5 4,9 - - - - - 0,0
23.05.2017 10:00:00 10,4 6,0 10,4 162 88 N 3,1 0,0
23.05.2017 09:00:00 9,6 5,1 - - - - - 0,0
23.05.2017 08:00:00 8,8 5,4 - - - - - 0,0
23.05.2017 07:00:00 8,4 5,2 - - - - - 0,0
23.05.2017 06:00:00 7,7 5,5 - - - - - 0,0
23.05.2017 05:00:00 7,1 5,6 - - - - - 0,0
23.05.2017 04:00:00 7,2 5,5 - - - - - 0,0
23.05.2017 03:00:00 6,7 4,9 - - - - - 0,0
23.05.2017 02:00:00 7,1 4,7 - - - - - 0,0
23.05.2017 01:00:00 6,8 5,3 - - - - - 0,0
23.05.2017 00:00:00 5,9 5,1 - - - - - 0,0
22.05.2017 23:00:00 6,0 5,0 - - - - - 0,0
22.05.2017 22:00:00 7,2 5,5 - - - - - 0,6
22.05.2017 21:00:00 7,5 5,7 - - - - - 3,6
22.05.2017 20:00:00 8,3 5,5 - - - - - 0,4
22.05.2017 19:00:00 11,0 10,1 - - - - - 3,6
22.05.2017 18:00:00 12,2 10,5 - - - - - 2,0
22.05.2017 17:00:00 11,5 9,7 - - - - - 0,6
22.05.2017 16:00:00 13,3 8,6 - - - - - 0,0
22.05.2017 15:00:00 13,1 8,8 - - - - - 0,0
22.05.2017 14:00:00 14,2 7,3 - - - - - 0,0
22.05.2017 13:00:00 12,8 7,7 - - - - - 0,0
22.05.2017 12:00:00 12,4 7,6 - - - - - 0,0
22.05.2017 11:00:00 12,8 7,6 - - - - - 0,0
22.05.2017 10:00:00 13,0 7,5 - - - - 10 0,0
22.05.2017 09:00:00 12,6 7,5 - - - - - 0,0
22.05.2017 08:00:00 10,8 7,3 - - - - - 0,0
22.05.2017 07:00:00 10,3 6,8 - - - - - 0,0
22.05.2017 06:00:00 9,8 6,9 - - - - - 0,0
22.05.2017 05:00:00 9,2 6,7 - - - - - 0,0
22.05.2017 04:00:00 9,2 6,7 - - - - - 0,0
22.05.2017 03:00:00 9,3 6,6 - - - - - 0,0
22.05.2017 02:00:00 9,2 5,8 - - - - - 0,0
22.05.2017 01:00:00 9,4 6,0 - - - - - 0,0
22.05.2017 00:00:00 9,4 6,1 - - - - - 0,0
21.05.2017 23:00:00 9,8 6,3 - - - - - 0,0
21.05.2017 22:00:00 9,3 6,2 - - - - - 0,0
21.05.2017 21:00:00 10,0 7,1 - - - - - 0,0
21.05.2017 20:00:00 10,4 8,4 - - - - - 0,6
21.05.2017 19:00:00 10,9 8,1 - - - - - 0,0
21.05.2017 18:00:00 11,9 8,4 - - - - - 0,0
21.05.2017 17:00:00 12,9 7,8 - - - - - 0,2
21.05.2017 16:00:00 11,7 7,0 - - - - - 0,0
21.05.2017 15:00:00 11,2 6,9 - - - - - 0,0
21.05.2017 14:00:00 11,0 6,8 - - - - - 0,0
21.05.2017 13:00:00 10,5 6,7 - - - - - 0,2
21.05.2017 12:00:00 9,8 5,5 - - - - - 0,0
21.05.2017 11:00:00 9,3 5,9 - - - - - 0,0
21.05.2017 10:00:00 9,1 5,0 9,2 97 53 N 1,2 0,0
21.05.2017 09:00:00 8,6 5,0 - - - - - 0,0
21.05.2017 08:00:00 8,4 4,7 - - - - - 0,0
21.05.2017 07:00:00 8,0 5,3 - - - - - 0,0
21.05.2017 06:00:00 4,9 2,9 - - - - - 0,0
21.05.2017 05:00:00 5,2 3,3 - - - - - 0,0
21.05.2017 04:00:00 6,5 3,9 - - - - - 0,0
21.05.2017 03:00:00 6,9 5,1 - - - - - 0,0
21.05.2017 02:00:00 6,6 4,9 - - - - - 0,0
21.05.2017 01:00:00 6,4 4,9 - - - - - 0,0
21.05.2017 00:00:00 5,1 4,0 - - - - - 0,0
20.05.2017 23:00:00 6,1 4,0 - - - - - 0,0
20.05.2017 22:00:00 7,0 3,6 - - - - - 0,0
20.05.2017 21:00:00 7,9 5,3 - - - - - 0,0
20.05.2017 20:00:00 8,9 5,8 - - - - - 0,0
20.05.2017 19:00:00 8,9 6,5 - - - - - 0,0
20.05.2017 18:00:00 8,6 6,8 - - - - - 0,0
20.05.2017 17:00:00 8,7 6,2 - - - - - 0,6
20.05.2017 16:00:00 8,1 7,0 - - - - - 1,2
20.05.2017 15:00:00 8,8 6,3 - - - - - 0,4
20.05.2017 14:00:00 8,5 6,3 - - - - - 0,2
20.05.2017 13:00:00 7,8 5,1 - - - - - 0,0
20.05.2017 12:00:00 7,7 5,3 - - - - - 0,6
20.05.2017 11:00:00 7,2 5,0 - - - - - 1,2
20.05.2017 10:00:00 6,9 4,8 9,1 - - N 5 0,8
20.05.2017 09:00:00 6,6 5,4 - - - - - 1,2
20.05.2017 08:00:00 6,4 5,8 - - - - - 0,6
20.05.2017 07:00:00 6,2 5,9 - - - - - 0,6
20.05.2017 06:00:00 5,9 5,5 - - - - - 1,2
20.05.2017 05:00:00 6,0 5,5 - - - - - 1,0
20.05.2017 04:00:00 6,4 5,8 - - - - - 1,2
20.05.2017 03:00:00 6,8 6,1 - - - - - 0,8
20.05.2017 02:00:00 6,9 5,8 - - - - - 1,0
20.05.2017 01:00:00 7,4 5,8 - - - - - 0,4
20.05.2017 00:00:00 7,8 6,0 - - - - - 0,0
19.05.2017 23:00:00 8,4 5,6 - - - - - 0,0
19.05.2017 22:00:00 9,1 5,3 - - - - - 0,0
19.05.2017 21:00:00 9,9 5,2 - - - - - 0,0
19.05.2017 20:00:00 11,4 4,7 - - - - - 0,0
19.05.2017 19:00:00 12,2 4,1 - - - - - 0,0
19.05.2017 18:00:00 12,8 4,5 - - - - - 0,0
19.05.2017 17:00:00 13,5 2,1 - - - - - 0,0
19.05.2017 16:00:00 13,2 2,8 - - - - - 0,0
19.05.2017 15:00:00 14,1 2,4 - - - - - 0,0
19.05.2017 14:00:00 13,5 3,0 - - - - - 0,0
19.05.2017 13:00:00 12,6 2,3 - - - - - 0,0
19.05.2017 12:00:00 12,7 2,4 - - - - - 0,0
19.05.2017 11:00:00 12,1 1,8 - - - - - 0,0
19.05.2017 10:00:00 10,8 4,0 10,8 13 7 N 3,3 0,0
19.05.2017 09:00:00 9,1 5,3 - - - - - 0,0
19.05.2017 08:00:00 6,2 5,4 - - - - - 0,0
19.05.2017 07:00:00 2,0 1,7 - - - - - 0,0
19.05.2017 06:00:00 -0,1 -0,6 - - - - - 0,0
19.05.2017 05:00:00 0,5 -0,1 - - - - - -
19.05.2017 04:00:00 1,2 0,7 - - - - - 0,0
19.05.2017 03:00:00 1,3 0,5 - - - - - 0,0
19.05.2017 02:00:00 1,7 0,7 - - - - - 0,0
19.05.2017 01:00:00 2,1 1,1 - - - - - 0,0
19.05.2017 00:00:00 2,5 0,9 - - - - - 0,0
18.05.2017 23:00:00 4,6 2,7 - - - - - 0,0
18.05.2017 22:00:00 6,1 2,7 - - - - - 0,0
18.05.2017 21:00:00 9,1 3,0 - - - - - 0,0
18.05.2017 20:00:00 10,5 2,6 - - - - - 0,0
18.05.2017 19:00:00 11,3 4,0 - - - - - 0,0
18.05.2017 18:00:00 12,0 3,2 - - - - - 0,0
18.05.2017 17:00:00 12,9 3,8 - - - - - 0,0
18.05.2017 16:00:00 13,2 4,1 - - - - - 0,0
18.05.2017 15:00:00 13,2 4,1 - - - - - 0,0
18.05.2017 14:00:00 13,0 1,9 - - - - - 0,0
18.05.2017 13:00:00 12,9 2,4 - - - - - 0,0
18.05.2017 12:00:00 12,1 3,7 - - - - - 0,0
18.05.2017 11:00:00 11,5 4,2 - - - - - 0,0
18.05.2017 10:00:00 9,5 2,7 10,3 28 15 N 1,8 0,0
18.05.2017 09:00:00 9,0 4,2 - - - - - 0,0
18.05.2017 08:00:00 6,7 5,2 - - - - - 0,0
18.05.2017 07:00:00 3,1 2,7 - - - - - 0,2
18.05.2017 06:00:00 1,6 1,1 - - - - - 0,0
18.05.2017 05:00:00 0,8 0,1 - - - - - 0,0
18.05.2017 04:00:00 1,9 1,4 - - - - - 0,0
18.05.2017 03:00:00 2,1 1,3 - - - - - 0,0
18.05.2017 02:00:00 3,8 2,9 - - - - - 0,0
18.05.2017 01:00:00 4,7 3,6 - - - - - 0,0
18.05.2017 00:00:00 6,9 5,9 - - - - - 0,0
17.05.2017 23:00:00 7,8 7,0 - - - - - 0,0
17.05.2017 22:00:00 8,0 6,8 - - - - - 0,0
17.05.2017 21:00:00 8,2 6,5 - - - - - 1,2
17.05.2017 20:00:00 9,0 6,2 - - - - - 0,0
17.05.2017 19:00:00 11,2 5,3 - - - - - 0,0
17.05.2017 18:00:00 12,9 3,9 - - - - - 0,0
17.05.2017 17:00:00 13,4 2,9 - - - - - 0,0
17.05.2017 16:00:00 14,4 4,3 - - - - - 0,0
17.05.2017 15:00:00 13,2 3,6 - - - - - 0,0

tt = Temperatura
td = dewpoint
tt 5cm = Temperatura 5cm
ff = velocità del vento
dd = direzione del vento
vv = visibility
rr = precipitazioni

Stazioni seguenti

WeatherPro
AMSI
MeteoEarth